DECAYED

CZ-6A DEB, 60887 (Decayed)

Orbit data source: Space-Track

CZ-6A DEB, 60887 was space debris in LEO originally from a launch on Tue, 06 Aug 2024 UTC launched from the Taiyaun Space Center, China (TSC). Debris objects in space refer to the collection of defunct objects orbiting the Earth. Examples of debris include non-operational satellites, rocket bodies, and fragments generated from explosions, collisions, or faulty payload assembly.

Not visible in the next 10 days
Identifier
60887, 2024-140KS
Orbit
Decayed
Country
Flag of CNCN / PRC
Related business
Manufacturer
SAST
Mission
Decayed spacecraft
Bus & Motor
Unknown
Mass
Unknown
Launch date (UTC)
2024-08-06 (2 years ago)
Launch vehicle
Unknown
Launch site
Taiyaun Space Center, China (TSC)
Object type
Payload
Rocket body
Debris
Shape & HBR
Unknown shape, 0.1 m
Radar Cross Section
Medium (>0.1 m² and <1 m²)

Expand to show TLE details & history
Last TLE update: 5 months ago

TLE from 5 months ago
0 CZ-6A DEB
1 60887U 24140KS  26005.32321073  .11208329 -10079-5  48811-2 0  9997
2 60887  88.8880 281.1198 0007192 196.6874 163.4191 16.22581549 75911
Epoch: 2026-01-05T07:45Z
TLE epoch observation values (Epoch: 2026-01-05T07:45:25.407Z)
Latitude
-0.00003°
Longitude
59.84192°
Altitude
220.433 km
Speed
7.771 km/s
True Right ascension
18h 44m 28s
True Declination
0° 00' 00"
Sunlit
Object was in daylight at epoch
Visualization orbit readout
Latitude
Unknown
Longitude
Unknown
Altitude
Unknown
Speed
Unknown
Apparent Right ascension
Unknown
Apparent Declination
Unknown
Sunlit
N/A
Visualization observer readout
Local Sidereal Time
07:23:54
Azimuth
Unknown
Elevation
Unknown
Doppler factor
Unknown
Orbital elements
Apogee altitude
213.958 km
Perigee altitude
204.482 km
Semi-major axis
6,587.357 km
Eccentricity
0.00072
Inclination
88.888°
RAAN
281.1198°
Arg. of periapsis
196.6874°
True anomaly
163.4426°
Mean anomaly
163.4191°
Eccentric anomaly
163.43085°
Mean motion
4.05954 °/min
Orbital period
88.68 mins
BSTAR
0.0048811
Loading maneuver chart data...
Computing Atmospheric mass density...
Loading historical data...
Loading historical data...
Loading historical data...
Loading historical data...
Loading historical data...
Loading historical data...
Loading historical data...

Documentation

Showing up to 5 results
|